san ya , China , Asia

  • Monday
    March 1

    Cloudy  Cloudy

    84 °F  70 °F

    No wind  No wind

        

  • Tuesday
    March 2

    Cloudy  Cloudy

    84 °F  72 °F

    East  Northeast

    3~4L   3~4L 

  • Wednesday
    March 3

    Cloudy  Cloudy

    84 °F  72 °F

    East  No wind

    3~4L    

  • Thursday
    March 4

    Cloudy  Cloudy

    77 °F  66 °F

    No wind  No wind

        

  • Friday
    March 5

    Sunny  Cloudy

    77 °F  66 °F

    No wind  No wind

        

  • Saturday
    March 6

    Cloudy  Cloudy

    79 °F  68 °F

    No wind  No wind

        

  • Sunday
    March 7

    Cloudy  Cloudy

    79 °F  66 °F

    No wind  No wind

        

Date   Weather Temperature Humidity Total_rain Visibility Wind
17:00 Sunny 80°F 93.4% 0mm 156.2km Southeast  4.8m/s
20:00 Sunny 76°F 97.6% 0mm 137.1km Southeast  5.4m/s
23:00 Sunny 72°F 98.1% 0mm 131.1km Northeast  5.2m/s
02:00 Cloudy 72°F 97.6% 0mm 136.6km Northeast  4.0m/s
05:00 Sunny 71°F 97% 0mm - Northeast  4.2m/s
08:00 Sunny 72°F 97.1% 0mm - Northeast  8.9m/s
11:00 Cloudy 80°F 75.7% 0mm - Northeast  5.8m/s
14:00 Sunny 84°F 93% 0mm - Northeast  5.9m/s
08:00 Sunny 72°F 97.1% 0mm - Northeast  8.9m/s
11:00 Cloudy 80°F 75.7% 0mm - Northeast  5.8m/s
14:00 Sunny 84°F 93% 0mm - Northeast  5.9m/s
17:00 Cloudy 81°F 91.1% 0mm - Northeast  6.6m/s
20:00 Cloudy 77°F 94.9% 0mm - Northeast  5.4m/s
23:00 Cloudy 73°F 95.8% 0mm - Northeast  6.2m/s
02:00 Cloudy 72°F 97% 0mm - Northeast  9.7m/s
05:00 Cloudy 72°F 94.7% 0mm - Northeast  6.8m/s
08:00 Cloudy 75°F 93.2% 0mm - Northeast  7.5m/s
11:00 Cloudy 79°F 95.1% 0mm - Northeast  7.4m/s
14:00 Cloudy 85°F 90.9% 0mm - Northeast  6.2m/s
17:00 Sunny 84°F 95.6% 0mm - Northeast  6.2m/s
20:00 Sunny 78°F 99.3% 0mm - Northeast  6.9m/s
23:00 Cloudy 77°F 103.1% 0mm - Northeast  7.7m/s
02:00 Sunny 72°F 100.8% 0mm - Northeast  8.3m/s
05:00 Cloudy 75°F 99.9% 0mm - Northeast  8.3m/s
08:00 Cloudy 76°F 97% 0mm - Northeast  9.0m/s
11:00 Sunny 77°F 77.6% 0mm - Northeast  6.4m/s
14:00 Sunny 78°F 87.1% 0mm - Northeast  6.2m/s
17:00 Sunny 74°F 92.2% 0mm - Northeast  5.4m/s
20:00 Sunny 70°F 98.6% 0mm - Northeast  6.6m/s
23:00 Sunny 69°F 102.6% 0mm - Northeast  7.5m/s
02:00 Sunny 69°F 104.8% 0mm - Northeast  5.8m/s
05:00 Sunny 68°F 103.8% 0mm - Northeast  5.4m/s
08:00 Cloudy 69°F 82.4% 0mm - Northeast  7.2m/s
11:00 Sunny 76°F 84.9% 0mm - Northeast  5.8m/s
14:00 Sunny 78°F 91.8% 0mm - Southeast  4.5m/s
17:00 Sunny 72°F 94.2% 0mm - Southeast  5.5m/s
20:00 Sunny 71°F 97.8% 0mm - Northeast  5.3m/s
23:00 Sunny 70°F 101.5% 0mm - Southeast  5.4m/s
02:00 Sunny 68°F 102.6% 0mm - Southeast  5.4m/s
05:00 Cloudy 69°F 101.7% 0mm - Southeast  4.8m/s
08:00 Cloudy 69°F 97.8% 0mm - Northeast  4.7m/s
11:00 Cloudy 77°F 87.9% 0mm - Southeast  4.6m/s
14:00 Sunny 79°F 91.5% 0mm - Southeast  3.8m/s
17:00 Cloudy 75°F 93.6% 0mm - Southeast  5.1m/s
20:00 Sunny 71°F 95.5% 0mm - Northeast  4.4m/s
23:00 Cloudy 70°F 97.2% 0mm - Southeast  5.2m/s
02:00 Sunny 69°F 97.3% 0mm - Northeast  5.9m/s
05:00 Cloudy 69°F 98.4% 0mm - Southeast  6.2m/s
08:00 Cloudy 71°F 95.5% 0mm - Northeast  5.9m/s
11:00 Cloudy 78°F 76% 0mm - Northeast  5.2m/s
14:00 Sunny 80°F 83% 0mm - Northeast  5.2m/s
17:00 Cloudy 74°F 87.7% 0mm - Southeast  5.0m/s
20:00 Sunny 71°F 90.4% 0mm - Northeast  5.9m/s
23:00 Sunny 71°F 91.1% 0mm - Northeast  6.1m/s
02:00 Cloudy 69°F 97% 0mm - Northeast  6.9m/s
05:00 Sunny 68°F 95.4% 0mm - Northeast  6.6m/s